Regional Weather Roundup
Issued by NWS

Home | Current Version | Previous Version | Graphics & Text | Print | Product List | Glossary On
Versions: 1 2 3 4 5 6 7 8 9 10 11 12 13 14 15 16 17 18 19 20 21 22 23 24 25 26 27 28 29 30 31 32 33 34 35 36 37 38 39 40 41 42 43 44 45 46 47 48 49 50
000
ASUS43 KDMX 190906
RWRIA

WEATHER ROUNDUP FOR IOWA
NATIONAL WEATHER SERVICE DES MOINES IA
300 AM CST MON FEB 19 2018

NOTE: "FAIR" INDICATES FEW OR NO CLOUDS BELOW 12,000 FEET WITH NO
SIGNIFICANT WEATHER AND/OR OBSTRUCTIONS TO VISIBILITY.

* - THESE STATIONS ARE NOT NWS STATIONS...THUS NOT UNDER NWS
QUALITY CONTROL.  THEY ALSO DO NOT REPORT WEATHER SUCH
AS PRECIPITATION OR FOG.

IAZ001>003-012>014-020>022-031>034-043>046-191000-
   NORTHWEST IOWA

CITY           SKY/WX    TMP DP  RH WIND       PRES   REMARKS
CARROLL *      CLOUDY    32  32 100 N17       29.66F FOG     WCI  21
CHEROKEE *     CLOUDY    25  21  87 N13G24    29.72F WCI  13
DENISON *      MIX PCPN  32  30  93 NE16G24   29.67S WCI  21
LE MARS *      CLOUDY    23  19  86 N20G28    29.77R WCI   8
ORANGE CITY *  CLOUDY    21  21 100 N18G24    29.75S WCI   6
SHELDON *      CLOUDY    21  19  93 N18G26    29.77R WCI   6
SIOUX CITY     FRZ RAIN  23  21  92 N18       29.76R FOG     WCI   9
SPENCER        CLOUDY    23  19  85 N25       29.75R WCI   7
STORM LAKE *   CLOUDY    25  23  93 NE23      29.70R WCI  10
$$

IAZ055>058-069>071-079>083-090>094-191000-
   SOUTHWEST IOWA

CITY           SKY/WX    TMP DP  RH WIND       PRES   REMARKS
ATLANTIC *     CLOUDY    43  43 100 CALM      29.63S FOG
AUDUBON *      DRIZZLE   39  37  93 CALM      29.65S
CLARINDA *       N/A     46  46 100 CALM      29.64F FOG
COUNCIL BLFS * CLOUDY    34  34 100 N13       29.61F FOG     WCI  25
CRESTON *      CLOUDY    43  41  93 SE13      29.65F FOG
HARLAN  *      CLOUDY    37  37 100 N8        29.66F FOG     WCI  31
LAMONI         CLOUDY    45  43  93 SE6       29.66F FOG
RED OAK *      CLOUDY    45  45 100 SE8       29.60F FOG
SHENANDOAH *   CLOUDY    48  48 100 SE10      29.60F FOG
$$

IAZ047>049-059>061-072>074-084-191000-
   CENTRAL IOWA

CITY           SKY/WX    TMP DP  RH WIND       PRES   REMARKS
AMES           CLOUDY    40  33  76 SE6       29.66F
ANKENY *       CLOUDY    43  34  70 SE6       29.68F
BOONE *        CLOUDY    39  34  81 SE7       29.65F WCI  34
CHARITON *     CLOUDY    46  39  76 S9        29.69F HAZE
DES MOINES     DRIZZLE   45  34  65 SE10      29.67F
GRINNELL*      CLOUDY    39  32  78 S8        29.71F WCI  33
KNOXVILLE *    CLOUDY    45  34  65 SE5       29.69F
MARSHALLTOWN   CLOUDY    36  32  85 SE9       29.69S WCI  29
NEWTON *       CLOUDY    39  34  81 SE10      29.70S WCI  32
PELLA *        CLOUDY    45  35  67 SE7       29.72S
PERRY *        CLOUDY    37  34  89 E5        29.66S WCI  33
$$

IAZ004>006-015-016-023>025-035-036-191000-
   NORTH CENTRAL IOWA

CITY           SKY/WX    TMP DP  RH WIND       PRES   REMARKS
ALGONA *       CLOUDY    27 N/A N/A N16       29.72R WCI  14
CLARION *      CLOUDY    32  32 100 N13       29.68F WCI  22
ESTHERVILLE    CLOUDY    21  18  88 N22       29.75R WCI   5
FORT DODGE *   CLOUDY    31  27  85 N10G16    29.70R WCI  22
MASON CITY     CLOUDY    32  29  88 N10       29.71F WCI  24
FOREST CITY *  CLOUDY    32  28  86 N9        29.71S WCI  24
WEBSTER CITY * CLOUDY    34  32  93 N9        29.67R WCI  26
IOWA FALLS *   CLOUDY    38  33  82 NW5       29.70R WCI  34
$$

IAZ007>011-017>019-026>030-037>042-050>054-066-191000-
   NORTHEAST IOWA

CITY           SKY/WX    TMP DP  RH WIND       PRES   REMARKS
CEDAR RAPIDS   FAIR      39  31  72 SE9       29.74S WCI  33
CHARLES CITY * FAIR      34  34 100 NE3       29.71F
CLINTON *      CLOUDY    38  34  85 MISG        N/A
DECORAH *      CLOUDY    37  30  75 SE5       29.71F WCI  34
DUBUQUE        CLOUDY    36  30  79 S10       29.75F WCI  28
MONTICELLO *   FAIR      37  32  81 E3        29.76S
OELWEIN *      FAIR      36  36 100 SE10      29.72F WCI  28
WATERLOO       FAIR      36  31  82 SE8       29.71F WCI  30
$$

IAZ064-065-067-068-078-191000-
   EAST CENTRAL IOWA

CITY           SKY/WX    TMP DP  RH WIND       PRES   REMARKS
DAVENPORT      MOCLDY    42  34  73 S12       29.80S
IOWA CITY      FAIR      38  30  73 SE5       29.78S WCI  34
MT. PLEASANT * CLOUDY    43  37  81 S12       29.76F
MUSCATINE *    FAIR      39  34  81 CALM      29.79S
QUAD CITIES    FAIR      42  36  79 S7        29.79R
$$

IAZ062-063-075>077-085>089-095>099-191000-
   SOUTHEAST IOWA

CITY           SKY/WX    TMP DP  RH WIND       PRES   REMARKS
BURLINGTON     CLOUDY    46  39  76 S12       29.77F
FAIRFIELD *    CLOUDY    45  39  81 S10       29.74F
FORT MADISON * CLOUDY    46  41  81 S9        29.78F
KEOKUK *       CLOUDY    46  41  81 SE7       29.78F
OSKALOOSA *    CLOUDY    42  37  83 S10       29.73S
OTTUMWA        CLOUDY    48  39  71 SE10      29.72F
WASHINGTON *   CLOUDY    37  37 100 S10       29.75F WCI  30
$$

ABBREVIATIONS USED IN REMARKS
   TC - TEMPERATURES IN CELSIUS
  WCI - WIND CHILL INDEX
   HX - HEAT INDEX
  VSB - VISIBILITY
$$





USA.gov is the U.S. government's official web portal to all federal, state and local government web resources and services.